Location: Baptist Memorial Hospital
(34.4976°N, 89.0284°W)
Time: 08:49:09
(UTC+00:00)

Cosmos 2227 Rocket - Pass Details

Date: 29 October 2020
Orbit: 838 x 846 km, 71.0° (Epoch: 04 December)

Event Time Altitude Azimuth Distance (km) Brightness Sun altitude
Rises 23:41:46 0° 346° (NNW) 3,402 5.4 -8.2°
Reaches altitude 10° 23:44:21 10° 354° (N) 2,465 4.6 -8.7°
Maximum altitude 23:49:41 42° 64° (ENE) 1,189 2.6 -9.8°
Drops below altitude 10° 23:55:01 10° 135° (SE) 2,457 4.3 -10.9°
Sets 23:57:35 0° 142° (SE) 3,389 5.1 -11.4°
